Weather History for Tehachapi, CA

Change the Weather History Date:

Wednesday, November 21, 2012

  Actual Average Record
Temperature  
Mean Temperature 49 °F -  
Max Temperature 59 °F 54 °F 59 °F (2012)
Min Temperature 39 °F 32 °F 28 °F (2011)
Degree Days  
Heating Degree Days 16    
Moisture  
Dew Point 37 °F    
Average Humidity 67    
Maximum Humidity 81    
Minimum Humidity 39    
Precipitation  
Precipitation 0.00 in - - ()
Sea Level Pressure  
Sea Level Pressure 30.16 in    
Wind  
Wind Speed 9 mph (WNW)    
Max Wind Speed 20 mph    
Max Gust Speed 28 mph    
Visibility 10 miles    
Events      
Averages and records for this station are not official NWS values.
T = Trace of Precipitation, MM = Missing Value Source: NWS Daily Summary

Daily Weather History Graph

Daily Weather History Graph

Search for Another Location

Airport:

Trip Planner

Search our weather history database for the weather conditions in past years. The results will help you decide how hot, cold, wet, or windy it might be!

Date:

Astronomy

Nov. 21, 2012 Rise Set
Actual Time 6:34 AM PST 4:44 PM PST
Civil Twilight 6:07 AM PST 5:11 PM PST
Nautical Twilight 5:36 AM PST 5:42 PM PST
Astronomical Twilight 5:06 AM PST 6:12 PM PST
Moon 12:51 PM PST (11/21) 12:12 AM PST (11/21)
Length of Visible Light 11h 04m
Length of Day
10h 09m
Waxing Gibbous, 63% of the Moon is Illuminated
Nov 21
Waxing Gibbous
Nov 28
Full
Dec 6
Last Quarter
Dec 13
New
Dec 19
First Quarter

Hourly Weather History & Observations

Time (PST) Temp. Windchill Dew Point Humidity Pressure Visibility Wind Dir Wind Speed Gust Speed Precip Events Conditions
12:15 AM - - - N/A% - - North - - N/A   Unknown
12:35 AM 39.2 °F - 32.0 °F 75% 30.15 in 10.0 mi Calm Calm - N/A   Unknown
12:55 AM 39.2 °F 35.9 °F 30.2 °F 70% 30.15 in 10.0 mi West 4.6 mph - N/A   Clear
1:15 AM 39.2 °F 33.6 °F 32.0 °F 75% 30.16 in 10.0 mi West 8.1 mph - N/A   Clear
1:35 AM 41.0 °F 37.1 °F 32.0 °F 70% 30.16 in 10.0 mi West 5.8 mph - N/A   Clear
1:55 AM 42.8 °F 38.0 °F 35.6 °F 76% 30.16 in 10.0 mi WNW 8.1 mph - N/A   Clear
2:15 AM 44.6 °F 40.2 °F 35.6 °F 71% 30.16 in 10.0 mi West 8.1 mph - N/A   Clear
2:35 AM 41.0 °F 35.2 °F 32.0 °F 70% 30.15 in 10.0 mi West 9.2 mph - N/A   Clear
2:55 AM 39.2 °F 34.2 °F 33.8 °F 81% 30.15 in 10.0 mi WNW 6.9 mph - N/A   Clear
3:15 AM 41.0 °F - 33.8 °F 76% 30.14 in 10.0 mi Calm Calm - N/A   Clear
3:35 AM 41.0 °F - 35.6 °F 81% 30.14 in 10.0 mi Calm Calm - N/A   Clear
3:55 AM 41.0 °F 37.1 °F 35.6 °F 81% 30.14 in 10.0 mi NW 5.8 mph - N/A   Clear
4:15 AM 41.0 °F 38.0 °F 33.8 °F 76% 30.14 in 10.0 mi West 4.6 mph - N/A   Clear
4:35 AM 39.2 °F 35.9 °F 33.8 °F 81% 30.14 in 10.0 mi WNW 4.6 mph - N/A   Clear
4:55 AM 41.0 °F 35.8 °F 35.6 °F 81% 30.14 in 10.0 mi WNW 8.1 mph - N/A   Clear
5:15 AM 41.0 °F 35.2 °F 35.6 °F 81% 30.15 in 9.0 mi West 9.2 mph - N/A   Clear
5:35 AM 39.2 °F 33.6 °F 32.0 °F 75% 30.15 in 10.0 mi West 8.1 mph - N/A   Clear
5:55 AM 39.2 °F 33.6 °F 32.0 °F 75% 30.15 in 10.0 mi West 8.1 mph - N/A   Clear
6:15 AM 39.2 °F 35.0 °F 33.8 °F 81% 30.15 in 8.0 mi West 5.8 mph - N/A   Clear
6:35 AM 41.0 °F 36.4 °F 35.6 °F 81% 30.16 in 8.0 mi West 6.9 mph - N/A   Clear
6:55 AM 39.2 °F 33.6 °F 33.8 °F 81% 30.17 in 8.0 mi West 8.1 mph - N/A   Clear
7:15 AM 41.0 °F 38.0 °F 35.6 °F 81% 30.18 in 8.0 mi West 4.6 mph - N/A   Clear
7:35 AM - - - N/A% - - North - - N/A   Unknown
7:55 AM 46.4 °F 41.1 °F 37.4 °F 71% 30.19 in 9.0 mi NW 11.5 mph - N/A   Unknown
8:15 AM 48.2 °F - 39.2 °F 71% 30.18 in 9.0 mi NW 12.7 mph - N/A   Unknown
8:35 AM - - - N/A% - 10.0 mi North - - N/A   Unknown
8:55 AM - - - N/A% - - North - - N/A   Unknown
9:15 AM - - - N/A% - 10.0 mi North - - N/A   Unknown
9:35 AM 51.8 °F - 39.2 °F 62% 30.19 in 8.0 mi NW 17.3 mph 23.0 mph N/A   Unknown
9:55 AM 53.6 °F - 39.2 °F 58% 30.19 in 10.0 mi NW 19.6 mph - N/A   Clear
10:15 AM 53.6 °F - 39.2 °F 58% 30.19 in 8.0 mi NW 18.4 mph 25.3 mph N/A   Clear
10:35 AM - - - N/A% - - North - - N/A   Unknown
10:55 AM 55.4 °F - 37.4 °F 51% 30.18 in 8.0 mi NW 15.0 mph 20.7 mph N/A   Unknown
11:15 AM 57.2 °F - 37.4 °F 48% 30.18 in 10.0 mi NW 17.3 mph 21.9 mph N/A   Clear
11:55 AM 57.2 °F - 35.6 °F 44% 30.16 in 10.0 mi NW 19.6 mph 25.3 mph N/A   Clear
12:15 PM 59.0 °F - 33.8 °F 39% 30.15 in 8.0 mi NW 17.3 mph 24.2 mph N/A   Clear
12:35 PM 59.0 °F - 35.6 °F 42% 30.15 in 10.0 mi NW 18.4 mph 23.0 mph N/A   Clear
12:55 PM 59.0 °F - 33.8 °F 39% 30.14 in 10.0 mi NW 18.4 mph 25.3 mph N/A   Clear
1:15 PM 59.0 °F - 35.6 °F 42% 30.14 in 10.0 mi NW 19.6 mph - N/A   Clear
1:35 PM 57.2 °F - 35.6 °F 44% 30.14 in 10.0 mi NW 19.6 mph 27.6 mph N/A   Clear
1:55 PM 57.2 °F - 37.4 °F 48% 30.14 in 10.0 mi NW 19.6 mph 25.3 mph N/A   Clear
2:15 PM 57.2 °F - 37.4 °F 48% 30.13 in 10.0 mi NW 18.4 mph 24.2 mph N/A   Clear
2:35 PM 57.2 °F - 39.2 °F 51% 30.13 in 10.0 mi NW 17.3 mph 24.2 mph N/A   Clear
2:55 PM 55.4 °F - 39.2 °F 54% 30.13 in 10.0 mi NW 17.3 mph 25.3 mph N/A   Clear
3:15 PM 55.4 °F - 39.2 °F 54% 30.13 in 10.0 mi NW 18.4 mph 21.9 mph N/A   Clear
3:35 PM 55.4 °F - 39.2 °F 54% 30.13 in 10.0 mi NW 17.3 mph 21.9 mph N/A   Clear
3:55 PM 53.6 °F - 39.2 °F 58% 30.13 in 10.0 mi NW 13.8 mph 20.7 mph N/A   Clear
4:15 PM 53.6 °F - 39.2 °F 58% 30.13 in 10.0 mi NW 16.1 mph 20.7 mph N/A   Clear
4:35 PM 51.8 °F - 39.2 °F 62% 30.13 in 10.0 mi NW 15.0 mph 20.7 mph N/A   Unknown
4:55 PM 50.0 °F - 39.2 °F 66% 30.14 in 10.0 mi NW 10.4 mph 18.4 mph N/A   Scattered Clouds
5:15 PM 50.0 °F - 37.4 °F 62% 30.14 in 10.0 mi WNW 9.2 mph - N/A   Overcast
5:35 PM 48.2 °F - 37.4 °F 66% 30.14 in 10.0 mi WNW 9.2 mph - N/A   Mostly Cloudy
5:55 PM - - - N/A% - 10.0 mi North - - N/A   Unknown
6:15 PM 48.2 °F - 39.2 °F 71% 30.15 in 10.0 mi WNW 10.4 mph - N/A   Unknown
6:35 PM 48.2 °F - 39.2 °F 71% 30.15 in 10.0 mi WNW 9.2 mph - N/A   Clear
6:55 PM 48.2 °F - 39.2 °F 71% 30.15 in 10.0 mi WNW 11.5 mph - N/A   Clear
7:15 PM 48.2 °F - 41.0 °F 76% 30.16 in 10.0 mi WNW 11.5 mph - N/A   Clear
7:35 PM - - - N/A% - - North - - N/A   Unknown
7:55 PM 48.2 °F - 39.2 °F 71% - - North - - N/A   Unknown
8:15 PM 48.2 °F - 39.2 °F 71% 30.17 in 10.0 mi NW 10.4 mph - N/A   Mostly Cloudy
8:35 PM 48.2 °F - 39.2 °F 71% 30.18 in 10.0 mi WNW 9.2 mph - N/A   Overcast
8:55 PM 48.2 °F - 39.2 °F 71% 30.19 in 10.0 mi NW 5.8 mph - N/A   Overcast
9:15 PM - - - N/A% - - North - - N/A   Unknown
9:35 PM - - - N/A% - - North - - N/A   Unknown
9:55 PM 48.2 °F - 39.2 °F 71% 30.19 in 10.0 mi WNW 9.2 mph - N/A   Unknown
10:15 PM 48.2 °F - 39.2 °F 71% 30.19 in 10.0 mi WNW 11.5 mph - N/A   Scattered Clouds
10:35 PM 48.2 °F - 41.0 °F 76% 30.19 in 10.0 mi NW 12.7 mph - N/A   Clear
10:55 PM 46.4 °F 41.1 °F 41.0 °F 81% 30.18 in 10.0 mi WNW 11.5 mph 18.4 mph N/A   Clear
11:15 PM 46.4 °F 41.5 °F 41.0 °F 81% 30.18 in 10.0 mi WNW 10.4 mph 21.9 mph N/A   Clear
11:35 PM - - - N/A% - - North - - N/A   Unknown
11:55 PM 46.4 °F 41.5 °F 41.0 °F 81% 30.19 in - NW 10.4 mph - N/A   Unknown